Regional Weather Roundup
Issued by NWS

Home | Current Version | Previous Version | Text Only | Print | Product List | Glossary Off
Versions: 1 2 3 4 5 6 7 8 9 10 11 12 13 14 15 16 17 18 19 20 21 22 23 24 25 26 27 28 29 30 31 32 33 34 35 36 37 38 39 40 41 42 43 44 45 46 47 48 49 50

000
ASUS44 KMEG 241810
RWRTN
TENNESSEE HOURLY STATE WEATHER ROUNDUP
NATIONAL WEATHER SERVICE MEMPHIS TN
100 PM CDT SAT SEP 24 2016

TNZ002-004-019-021-049-052-054-088>092-241900-
WEST TENNESSEE

CITY           SKY/WX    TMP DP  RH WIND       PRES   REMARKS
MEMPHIS INTL   MOSUNNY   93  64  38 VRB3      30.07F HX  94
NWS MEMPHIS      N/A     94 N/A N/A MISG        N/A
JACKSON        MOSUNNY  N/A N/A N/A E5        30.10F
DYERSBURG      SUNNY    N/A N/A N/A MISG        N/A
UNION CITY     MOSUNNY   91  66  43 CALM      30.08F HX  94
PARIS          PTSUNNY   88  66  48 E6        30.11F HX  90
HUNTINGDON       N/A     91  66  43 VRB5      30.09F HX  94
LEXINGTON      SUNNY     90  64  43 VRB5      30.10F HX  91
$$

TNZ008-025-027-028-033-062-065-066-241900-
NORTH MIDDLE TENNESSEE

CITY           SKY/WX    TMP DP  RH WIND       PRES   REMARKS
NASHVILLE      MOSUNNY   89  62  40 NE9       30.12F
PORTLAND       SUNNY     86  64  48 VRB6      30.13F
CLARKSVILLE    SUNNY     89  65  44 VRB3      30.11F HX  91
SMYRNA         MOSUNNY   89  65  44 NW8       30.12F HX  91
COOKEVILLE     MOSUNNY   90  66  45 NE6       30.13F HX  92
GALLATIN       SUNNY     88  63  42 N7G14     30.14F
CROSSVILLE     PTSUNNY   85  62  46 NE7       30.18F
$$

TNZ061-075-076-078-094-096-097-241900-
SOUTH MIDDLE TENNESSEE

CITY           SKY/WX    TMP DP  RH WIND       PRES   REMARKS
FAYETTEVILLE   PTSUNNY   88  64  45 NE7G13    30.11F
TULLAHOMA      SUNNY     88  61  40 VRB6      30.14F
WINCHESTER     SUNNY     90  61  37 NE6       30.12F
MCMINNVILLE    SUNNY     88  66  48 N9        30.13F HX  90
COLUMBIA       SUNNY     90  66  45 VRB3      30.10F HX  92
SHELBYVILLE    SUNNY     91  63  38 CALM      30.12F HX  92
$$

TNZ017-018-042-046-047-241900-
NORTHEAST TENNESSEE

CITY           SKY/WX    TMP DP  RH WIND       PRES   REMARKS
TRI CITIES     MOSUNNY   84  62  47 VRB3      30.14F
ELIZABETHTON   SUNNY     88  63  42 NW8G15    30.12F
$$

TNZ012-013-036-069-073-074-241900-
CENTRAL EAST TENNESSEE

CITY           SKY/WX    TMP DP  RH WIND       PRES   REMARKS
KNOXVILLE      MOSUNNY   89  59  36 CALM      30.10F
OAK RIDGE      SUNNY     90  62  39 CALM      30.13F HX  90
DOWNTOWN KNOXV SUNNY     90  64  43 VRB6      30.10F HX  91
GATLINBURG     SUNNY     90  59  35 E8        30.11F
MORRISTOWN     MOSUNNY   86  61  42 VRB7      30.13F
JACKSBORO      PTSUNNY   90  63  40 VRB7      30.15F HX  90
$$

TNZ083-085-099-241900-
SOUTHEAST TENNESSEE

CITY           SKY/WX    TMP DP  RH WIND       PRES   REMARKS
CHATTANOOGA    MOSUNNY   91  59  33 VRB3      30.10F HX  90
$$

SKY/WX REPORTED AS FAIR MEANS FEW OR NO CLOUDS BELOW
12 THOUSAND FEET.





USA.gov is the U.S. government's official web portal to all federal, state and local government web resources and services.